EW4092 Weather Reports


time (UTC)temp
F
wind
direction
speed
knots
gust
knots
rain 1hr
in
rain 24hr
in
rain mn
in
humidity
%
barometer
mb
20260510024555 73 44 0.0 0.9 0.00 0.00 0.00 30 1015.6
20260510023053 74 44 0.0 0.9 0.00 0.00 0.00 31 1015.6
20260510021558 75 44 0.0 1.7 0.00 0.00 0.00 30 1015.7
20260510020051 76 41 0.0 1.7 0.00 0.00 0.00 28 1015.6
20260510014550 77 88 0.0 0.9 0.00 0.00 0.00 28 1015.5
20260510013049 77 231 0.9 1.7 0.00 0.00 0.00 27 1015.9
20260510011548 77 100 0.0 0.9 0.00 0.00 0.00 28 1016.1
20260510010045 77 215 0.9 2.6 0.00 0.00 0.00 28 1016.1
20260510004548 78 328 1.7 2.6 0.00 0.00 0.00 28 1016.1
20260510003043 76 249 0.9 5.2 0.00 0.00 0.00 29 1016.2
20260510001540 77 295 0.9 3.5 0.00 0.00 0.00 30 1016.3
20260510000042 76 39 0.0 4.3 0.00 0.00 0.00 30 1016.5
20260509234542 77 68 0.0 1.7 0.00 0.00 0.00 28 1016.6
20260509233038 76 295 1.7 7.0 0.00 0.00 0.00 27 1016.8
20260509231540 77 314 0.9 4.3 0.00 0.00 0.00 28 1016.9
20260509230032 76 218 1.7 4.3 0.00 0.00 0.00 27 1017.0
20260509224533 75 256 1.7 5.2 0.00 0.00 0.00 27 1017.3
20260509223030 76 121 1.7 4.3 0.00 0.00 0.00 25 1017.4
20260509221525 75 270 0.9 4.3 0.00 0.00 0.00 27 1017.8
20260509220027 75 100 0.0 2.6 0.00 0.00 0.00 26 1018.1
20260509214521 75 32 0.9 4.3 0.00 0.00 0.00 26 1018.3
20260509213018 75 12 3.5 6.1 0.00 0.00 0.00 26 1018.4
20260509211515 74 115 0.9 3.5 0.00 0.00 0.00 27 1018.5
20260509210012 74 107 0.9 4.3 0.00 0.00 0.00 26 1018.7
20260509204509 73 227 0.9 6.1 0.00 0.00 0.00 32 1018.9
20260509203010 72 269 3.5 6.1 0.00 0.00 0.00 32 1019.0
20260509201505 73 306 0.0 2.6 0.00 0.00 0.00 31 1019.2
20260509200003 72 46 2.6 6.1 0.00 0.00 0.00 29 1019.4
20260509194601 72 68 0.9 5.2 0.00 0.00 0.00 31 1019.7
20260509193057 71 21 3.5 7.0 0.00 0.00 0.00 34 1019.8
20260509191556 71 95 0.0 5.2 0.00 0.00 0.00 37 1019.9
20260509190053 70 328 1.7 8.7 0.00 0.00 0.00 37 1020.1
20260509184555 69 319 2.6 6.1 0.00 0.00 0.00 38 1020.1
20260509183051 69 356 1.7 9.6 0.00 0.00 0.00 38 1020.1
20260509181557 68 316 0.9 6.1 0.00 0.00 0.00 40 1020.2
20260509180047 66 263 1.7 4.3 0.00 0.00 0.00 43 1020.5
20260509174543 65 224 0.9 4.3 0.00 0.00 0.00 45 1020.5
20260509173046 66 252 1.7 4.3 0.00 0.00 0.00 44 1020.5
20260509171540 65 13 0.9 2.6 0.00 0.00 0.00 46 1020.7
20260509170046 64 263 0.9 3.5 0.00 0.00 0.00 46 1020.8
20260509164541 63 215 0.9 2.6 0.00 0.00 0.00 47 1021.0
20260509163034 64 214 0.0 2.6 0.00 0.00 0.00 50 1021.0
20260509161534 63 74 0.0 2.6 0.00 0.00 0.00 51 1020.9
20260509160032 61 108 0.0 2.6 0.00 0.00 0.00 55 1020.8
20260509154524 60 109 0.0 1.7 0.00 0.00 0.00 55 1020.9
20260509153025 59 108 0.0 1.7 0.00 0.00 0.00 58 1021.0
20260509151518 57 90 0.9 1.7 0.00 0.00 0.00 58 1021.2
20260509150015 55 58 0.0 1.7 0.00 0.00 0.00 62 1021.3
20260509144514 53 58 0.0 0.9 0.00 0.00 0.00 66 1021.3
20260509143014 50 58 0.0 1.7 0.00 0.00 0.00 69 1021.4
20260509141513 48 123 0.0 1.7 0.00 0.00 0.00 72 1021.3
20260509140012 46 68 0.0 0.9 0.00 0.00 0.00 75 1021.2
20260509134511 43 68 0.0 0.0 0.00 0.00 0.00 79 1021.1
20260509133009 42 68 0.0 3.5 0.00 0.00 0.00 79 1021.0
20260509131507 43 98 0.0 0.9 0.00 0.00 0.00 78 1020.7
20260509130006 42 114 0.0 1.7 0.00 0.00 0.00 80 1020.7
20260509124506 42 114 0.0 2.6 0.00 0.00 0.00 81 1020.4
20260509123001 43 58 1.7 3.5 0.00 0.00 0.00 77 1020.5
20260509121612 43 89 0.0 2.6 0.00 0.00 0.00 79 1020.4
20260509120113 43 89 0.0 3.5 0.00 0.00 0.00 79 1020.5
20260509114558 43 109 0.9 3.5 0.00 0.00 0.00 77 1020.5
20260509113056 45 113 0.0 2.6 0.00 0.00 0.00 75 1020.4
20260509111552 45 87 0.0 1.7 0.00 0.00 0.00 74 1020.4
20260509110053 46 88 0.0 2.6 0.00 0.00 0.00 74 1020.4
20260509104544 47 112 0.0 0.9 0.00 0.00 0.00 73 1020.3
20260509103042 47 111 0.0 1.7 0.00 0.00 0.00 72 1020.3
20260509101549 48 111 0.0 1.7 0.00 0.00 0.00 70 1020.1
20260509100042 49 84 0.9 3.5 0.00 0.00 0.00 69 1019.9
20260509094534 49 85 0.0 3.5 0.00 0.00 0.00 70 1019.8
20260509093031 49 71 0.0 2.6 0.00 0.00 0.00 69 1019.8
20260509091533 51 104 0.0 0.0 0.00 0.00 0.00 66 1019.8
20260509090023 53 104 0.0 2.6 0.00 0.00 0.00 62 1019.7
20260509084526 54 150 0.9 4.3 0.00 0.00 0.00 61 1019.6
20260509083019 55 193 0.9 7.8 0.00 0.00 0.00 60 1019.6
20260509081519 55 112 1.7 7.0 0.00 0.00 0.00 58 1019.6
20260509080017 55 109 0.9 6.1 0.00 0.00 0.00 60 1019.6
20260509074516 55 107 2.6 5.2 0.00 0.00 0.00 60 1019.7
20260509073023 55 146 0.9 5.2 0.00 0.00 0.00 60 1019.6
20260509071512 55 145 0.0 4.3 0.00 0.00 0.00 58 1019.5
20260509070008 55 187 0.9 4.3 0.00 0.00 0.00 59 1019.2
20260509064508 55 142 1.7 7.8 0.00 0.00 0.00 58 1019.3
20260509063012 55 139 0.0 5.2 0.00 0.00 0.00 59 1019.6
20260509061506 55 114 1.7 3.5 0.00 0.00 0.00 58 1019.7
20260509060006 55 67 0.0 0.9 0.00 0.00 0.00 57 1019.8
20260509054504 56 67 0.9 2.6 0.00 0.00 0.00 55 1019.6
20260509053002 57 186 0.0 6.1 0.00 0.00 0.00 54 1019.3
20260509051600 58 149 0.0 6.1 0.00 0.00 0.00 52 1019.2
20260509050059 58 143 0.9 6.1 0.00 0.00 0.00 52 1019.1
20260509044557 59 124 1.7 5.2 0.00 0.00 0.00 50 1019.0
20260509043054 60 146 0.9 5.2 0.00 0.00 0.00 48 1018.7
20260509041555 61 163 0.9 4.3 0.00 0.00 0.00 47 1018.4
20260509040119 62 124 2.6 8.7 0.00 0.00 0.00 45 1018.0
20260509034555 62 108 1.7 3.5 0.00 0.00 0.00 44 1017.8
20260509033047 63 158 0.9 4.3 0.00 0.00 0.00 42 1017.6
20260509031544 65 135 0.0 4.3 0.00 0.00 0.00 40 1017.1
20260509030046 67 118 3.5 8.7 0.00 0.00 0.00 37 1016.8